Regional Weather Roundup
Issued by NWS State College, PA

Home | Current Version | Previous Version | Text Only | Print | Product List | Glossary Off
Versions: 1 2 3 4 5 6 7 8 9 10 11 12 13 14 15 16 17 18 19 20 21 22 23 24 25 26 27 28 29 30 31 32 33 34 35 36 37 38 39 40 41 42 43 44 45 46 47 48 49 50

000
ASUS41 KCTP 230210
RWRCTP

REGIONAL WEATHER ROUNDUP
NATIONAL WEATHER SERVICE STATE COLLEGE PA
1000 PM EDT TUE APR 22 2014

Note: "fair" indicates few or no clouds below 12,000 feet with no
significant weather and/or obstructions to visibility.

* = STATION THAT DOES NOT REPORT PRECIPITATION /E.G. RAIN...SNOW...ETC/
    THUNDER OR FOG.

PAZ002>004-007>009-013>016-020>023-029>032-230300-
WESTERN PENNSYLVANIA

CITY           SKY/WX    TMP DP  RH WIND       PRES   REMARKS
ERIE           CLOUDY    40  35  83 W10       29.82R
MEADVILLE      NOT AVBL
FRANKLIN*      CLOUDY    41  32  70 NW7       29.81R
NEW CASTLE     CLOUDY    46  35  65 NW10G21   29.82R
BEAVER COUNTY  NOT AVBL
BUTLER*        CLOUDY    46  32  57 W7        29.81R
PITTSBURGH INT CLOUDY    49  34  56 NW17G26   29.80R
PITTSBURGH     CLOUDY    49  35  58 N15G26    29.79R
INDIANA*       PTCLDY    45  37  76 NW7       29.77R
LATROBE        MOCLDY    46  39  76 N7        29.80R
WASHINGTON CO* CLOUDY    48  37  66 N7        29.82R
$$

PAZ004>006-010>012-017>019-024>028-033>037-041-042-045-046-049>053-230300-
CENTRAL PENNSYLVANIA

CITY           SKY/WX    TMP DP  RH WIND       PRES   REMARKS
BRADFORD       CLOUDY    39  30  70 NW9G17    29.71R
DUBOIS         CLOUDY    43  33  68 NW12      29.74R
CLEARFIELD     MOCLDY    44  33  65 NW13      29.72R
JOHNSTOWN      PTCLDY    42  35  76 NW15      29.72R
ALTOONA        MOCLDY    48  37  65 N13G24    29.73R
STATE COLLEGE  MOCLDY    48  29  49 NW13      29.71R
WILLIAMSPORT   CLEAR     56  40  55 W15       29.61R
SELINSGROVE    CLEAR     57  41  55 W7        29.63R
FT INDIANTOWN  CLEAR     59  50  72 W17G24    29.60S
CAPITAL CITY   CLEAR     57  46  66 W13       29.63R
HARRISBURG     PTCLDY    55  49  80 NW10      29.62R
YORK           CLEAR     56  48  74 W7        29.64R
$$

PAZ038>040-043-044-047-048-054-055-060>062-067>071-230300-
EASTERN PENNSYLVANIA

CITY           SKY/WX    TMP DP  RH WIND       PRES   REMARKS
SCRANTON       CLOUDY    57  49  74 SW10      29.55R
MOUNT POCONO   MOCLDY    52  45  77 W6        29.56S
ALLENTOWN      PTCLDY    50  45  83 W6        29.57R
QUAKERTOWN*    PTCLDY    59  46  63 SW8       29.58R
READING        CLEAR     55  48  77 W3        29.58S
LANCASTER      CLEAR     50  48  93 W6        29.61R
COATESVILLE    NOT AVBL
POTTSTOWN      PTCLDY    53  50  89 W3        29.60R
BLUE BELL      MOCLDY    55  52  88 W5        29.58R
DOYLESTOWN     CLOUDY    58  47  66 W7        29.56R
WILLOW GROVE   NOT AVBL
NORTH PHILA    MOCLDY    55  50  83 W7        29.58F
PHILADELPHIA   MOCLDY    58  48  69 SW9       29.60R
$$



USA.gov is the U.S. government's official web portal to all federal, state and local government web resources and services.